EW2082 Weather Reports


Display with metric or nautical units.
time (UTC)temp
F
wind
direction
speed
MPH
gust
MPH
rain 1hr
in
rain 24hr
in
rain mn
in
humidity
%
barometer
mb
20260831111004 68 293 0.0 0.0 0.00 0.00 0.00 86 1011.6
20260831110005 68 293 0.0 0.0 0.00 0.00 0.00 87 1011.7
20260831105005 68 293 0.0 0.0 0.00 0.00 0.00 86 1011.7
20260831104004 68 293 0.0 0.0 0.00 0.00 0.00 86 1011.6
20260831103005 68 293 0.0 0.0 0.00 0.00 0.00 84 1011.7
20260831102004 68 293 0.0 0.0 0.00 0.00 0.00 84 1011.6
20260831100005 68 293 0.0 0.0 0.00 0.00 0.00 83 1011.6
20260831095004 69 293 0.0 0.0 0.00 0.00 0.00 82 1011.6
20260831094004 69 293 0.0 0.0 0.00 0.00 0.00 83 1011.6
20260831093004 69 293 0.0 0.0 0.00 0.00 0.00 82 1011.7
20260831091003 69 293 0.0 0.0 0.00 0.00 0.00 80 1011.6
20260831090004 69 293 0.0 0.0 0.00 0.00 0.00 81 1011.6
20260831084004 69 293 0.0 0.0 0.00 0.00 0.00 85 1011.5
20260831083004 69 293 0.0 0.0 0.00 0.00 0.00 84 1011.6
20260831080004 68 293 0.0 0.0 0.00 0.00 0.00 85 1011.8
20260831075003 69 293 0.0 0.0 0.00 0.00 0.00 85 1011.7
20260831074004 69 293 0.0 0.0 0.00 0.00 0.00 84 1011.7
20260831073003 69 293 0.0 0.0 0.00 0.00 0.00 83 1011.5
20260831070006 69 293 0.0 0.0 0.00 0.00 0.00 85 1011.4
20260831065005 69 293 0.0 0.0 0.00 0.00 0.00 85 1011.4
20260831064004 70 293 0.0 0.0 0.00 0.00 0.00 85 1011.4
20260831062004 71 293 0.0 0.0 0.00 0.00 0.00 86 1011.3
20260831061004 71 293 0.0 0.0 0.00 0.00 0.00 85 1011.2
20260831060005 71 293 0.0 0.0 0.00 0.00 0.00 84 1011.5
20260831055005 71 293 0.0 0.0 0.00 0.00 0.00 83 1011.3
20260831054005 72 293 0.0 0.0 0.00 0.00 0.00 83 1011.3
20260831053004 72 293 0.0 0.0 0.00 0.00 0.00 82 1011.3
20260831051004 72 293 0.0 0.0 0.00 0.00 0.00 80 1011.4
20260831050006 72 293 0.0 0.0 0.00 0.00 0.00 80 1011.4
20260831045005 72 255 0.0 0.0 0.00 0.00 0.00 81 1011.4
20260831044004 72 255 0.0 0.0 0.00 0.00 0.00 81 1011.3
20260831043005 72 259 0.0 1.0 0.00 0.00 0.00 80 1011.1
20260831042005 72 214 0.0 1.0 0.00 0.00 0.00 80 1011.1
20260831041005 72 217 0.0 0.0 0.00 0.00 0.00 80 1010.8
20260831040006 73 284 0.0 1.0 0.00 0.00 0.00 80 1010.8
20260831035005 73 285 0.0 1.0 0.00 0.00 0.00 79 1010.4
20260831033005 73 26 0.0 1.0 0.00 0.00 0.00 76 1010.2
20260831032005 74 13 0.0 1.0 0.00 0.00 0.00 73 1010.1
20260831031005 74 165 0.0 0.0 0.00 0.00 0.00 72 1010.0
20260831030005 74 281 0.0 1.0 0.00 0.00 0.00 71 1010.0
20260831023005 74 254 0.0 5.0 0.00 0.00 0.00 68 1009.9
20260831022005 75 341 0.0 2.0 0.00 0.00 0.00 68 1009.8
20260831020005 76 41 0.0 2.0 0.00 0.00 0.00 73 1009.8
20260831015005 76 345 1.0 2.0 0.00 0.00 0.00 72 1009.7
20260831013005 77 25 0.0 4.0 0.00 0.00 0.00 73 1009.7
20260831012005 79 31 0.0 3.0 0.00 0.00 0.00 71 1009.6
20260831011004 80 29 0.0 3.0 0.00 0.00 0.00 70 1009.7
20260831010006 81 300 4.0 4.0 0.00 0.00 0.00 69 1009.7
20260831004005 82 11 0.0 9.0 0.00 0.00 0.00 69 1009.6
20260831003004 82 41 0.0 3.0 0.00 0.00 0.00 68 1009.7
20260831002004 84 304 0.0 5.0 0.00 0.00 0.00 66 1009.6
20260831001004 85 7 0.0 5.0 0.00 0.00 0.00 64 1009.5
20260831000005 85 23 0.0 4.0 0.00 0.00 0.00 63 1009.3
20260830234004 86 318 0.0 8.0 0.00 0.00 0.00 60 1009.4
20260830233004 86 117 0.0 2.0 0.00 0.00 0.00 61 1009.4
20260830232004 86 39 0.0 4.0 0.00 0.00 0.00 60 1009.4
20260830231005 88 32 0.0 6.0 0.00 0.00 0.00 57 1009.5
20260830230005 89 184 0.0 1.0 0.00 0.00 0.00 58 1009.4
20260830224004 89 252 0.0 4.0 0.00 0.00 0.00 56 1009.8
20260830222004 88 296 0.0 4.0 0.00 0.00 0.00 57 1010.2
20260830221004 87 311 0.0 6.0 0.00 0.00 0.00 56 1010.2
20260830220004 88 331 0.0 6.0 0.00 0.00 0.00 54 1010.5
20260830215004 89 276 0.0 4.0 0.00 0.00 0.00 56 1010.5
20260830214004 90 11 0.0 3.0 0.00 0.00 0.00 53 1010.7
20260830213004 89 6 0.0 5.0 0.00 0.00 0.00 55 1010.8
20260830212004 91 326 0.0 1.0 0.00 0.00 0.00 53 1010.8
20260830211004 92 358 0.0 2.0 0.00 0.00 0.00 53 1011.0
20260830210006 92 288 0.0 3.0 0.00 0.00 0.00 53 1011.0
20260830205004 92 331 0.0 2.0 0.00 0.00 0.00 52 1011.2
20260830204003 91 143 0.0 0.0 0.00 0.00 0.00 55 1011.2
20260830132004 68 37 0.0 0.0 0.00 0.00 0.00 88 1010.9
20260830131004 68 37 0.0 0.0 0.00 0.00 0.00 88 1010.8
20260830125003 69 37 0.0 0.0 0.00 0.00 0.00 88 1010.8
20260830124004 69 37 0.0 0.0 0.00 0.00 0.00 88 1010.8
20260830123004 69 37 0.0 0.0 0.00 0.00 0.00 87 1010.7
20260830122003 69 37 0.0 0.0 0.00 0.00 0.00 87 1010.7
20260830121003 69 37 0.0 0.0 0.00 0.00 0.00 86 1010.7
20260830120004 70 37 0.0 0.0 0.00 0.00 0.00 86 1010.4
20260830113004 70 37 0.0 0.0 0.00 0.00 0.00 85 1010.2